STARLINK-1269, 45197

Orbit data source: Space-Track

STARLINK-1269, 45197 is a payload satellite owned by SpaceX/Seattle (US) in LEO that was launched on Mon, 17 Feb 2020 UTC via an FALCON 9 launch vehicle from the Air Force Eastern Test Range (AFETR). Payload-class satellites include a variety of spacecraft equipped with specific instruments for various scientific and technological missions. These include communications satellites like Starlink; space stations such as the ISS; scientific satellites like the Hubble; Earth observation satellites from companies like Planet Labs, Umbra, and HawkEye 360; GPS; miniature CubeSats for education and research; and military/defense satellites.

Loading next visibility...
Identifier
45197, 2020-012V
Orbit
LEO
Country
Flag of USUS
Related business
Manufacturer
SpaceX/Seattle
Mission
Operational Commercial Communications
Bus & Motor
STARLINK, Unknown motor
Mass
260 kg wet, ~248 kg dry
Launch date (UTC)
2020-02-17 (6 years ago)
Launch vehicle
FALCON 9
Launch site
Air Force Eastern Test Range (AFETR)
Object type
Payload
Rocket body
Debris
Shape & HBR
Box + 1 Pan, 10.1 m
Radar Cross Section
13.562 m², Large (>1 m²)

Expand to show TLE details & history
Last TLE update: 1 day ago

TLE from 1 day ago
0 STARLINK-1269
1 45197U 20012V   26073.12365688  .00003919  00000-0  14447-3 0  9993
2 45197  53.1622  18.9932 0001374 109.7077 250.4072 15.30175100335593
Epoch: 2026-03-14T02:58Z
TLE epoch observation values (Epoch: 2026-03-14T02:58:03.954Z)
Latitude
-0.00003°
Longitude
162.72735°
Altitude
476.505 km
Speed
7.629 km/s
True Right ascension
01h 15m 58s
True Declination
0° 00' 00"
Sunlit
Object was in daylight at epoch
Visualization orbit readout
Latitude
Unknown
Longitude
Unknown
Altitude
Unknown
Speed
Unknown
Apparent Right ascension
Unknown
Apparent Declination
Unknown
Sunlit
N/A
Visualization observer readout
Local Sidereal Time
13:44:49
Azimuth
Unknown
Elevation
Unknown
Doppler factor
Unknown
Orbital elements
Apogee altitude
476.487 km
Perigee altitude
474.604 km
Semi-major axis
6,853.682 km
Eccentricity
0.00014
Inclination
53.1622°
RAAN
18.9932°
Arg. of periapsis
109.7077°
True anomaly
250.39237°
Mean anomaly
250.4072°
Eccentric anomaly
250.39978°
Mean motion
3.82523 °/min
Orbital period
94.11 mins
BSTAR
0.00014447
Loading maneuver chart data...
Computing Atmospheric mass density...

Documentation

Showing up to 5 results
|